QPF
0.00 0.00 0.00 0.00 0.00 0.01 0.02 0.02 0.02 0.02 0.01 0.01 0.01 0.00 0.01 0.01 0.01 0.00 0.01 0.01 0.01 0.02 0.02 0.03 0.03 0.02 0.02 0.02 0.02 0.01 0.01 0.01 0.02 0.03 0.02 0.02 0.02 0.05 0.08 0.11 0.13 0.06 0.02
0.00 0.00 0.00 0.00 0.00 0.01 0.02 0.02 0.02 0.02 0.02 0.01 0.01 0.01 0.01 0.01 0.01 0.01 0.01 0.01 0.01 0.01 0.01 0.02 0.01 0.02 0.01 0.02 0.01 0.01 0.01 0.03 0.03 0.04 0.03 0.02 0.03 0.05 0.08 0.11 0.16 0.06 0.04
0.00 0.00 0.00 0.00 0.00 0.01 0.02 0.02 0.02 0.02 0.02 0.02 0.01 0.01 0.01 0.01 0.01 0.01 0.01 0.01 0.01 0.01 0.01 0.01 0.01 0.01 0.01 0.01 0.01 0.01 0.01 0.03 0.05 0.09 0.15 0.11 0.02 0.04 0.08 0.10 0.10 0.05 0.05
0.00 0.00 0.00 0.00 0.01 0.01 0.02 0.02 0.02 0.02 0.02 0.02 0.01 0.01 0.01 0.01 0.01 0.01 0.01 0.01 0.01 0.01 0.01 0.01 0.00 0.01 0.01 0.01 0.01 0.01 0.01 0.01 0.05 0.18 0.31 0.17 0.05 0.03 0.05 0.05 0.05 0.05 0.03
0.00 0.00 0.00 0.00 0.01 0.01 0.02 0.02 0.02 0.02 0.01 0.01 0.01 0.01 0.01 0.01 0.01 0.01 0.01 0.02 0.01 0.01 0.01 0.01 0.01 0.01 0.01 0.01 0.01 0.01 0.01 0.01 0.06 0.17 0.21 0.17 0.08 0.03 0.03 0.04 0.04 0.04 0.02
0.00 0.00 0.00 0.00 0.01 0.01 0.02 0.02 0.02 0.02 0.02 0.01 0.01 0.01 0.01 0.01 0.01 0.01 0.01 0.01 0.01 0.01 0.01 0.01 0.01 0.01 0.01 0.01 0.01 0.00 0.00 0.02 0.09 0.12 0.11 0.13 0.06 0.02 0.03 0.04 0.04 0.03 0.02
0.00 0.00 0.00 0.00 0.01 0.01 0.01 0.02 0.02 0.02 0.02 0.01 0.01 0.01 0.01 0.01 0.02 0.02 0.01 0.01 0.01 0.01 0.01 0.01 0.00 0.01 0.01 0.01 0.01 0.00 0.01 0.03 0.10 0.09 0.10 0.13 0.06 0.02 0.03 0.04 0.04 0.03 0.03
0.00 0.00 0.00 0.00 0.01 0.01 0.02 0.03 0.03 0.02 0.02 0.01 0.01 0.01 0.01 0.01 0.01 0.01 0.01 0.00 0.00 0.00 0.00 0.00 0.00 0.00 0.00 0.01 0.01 0.00 0.00 0.02 0.07 0.07 0.08 0.09 0.03 0.02 0.03 0.03 0.03 0.03 0.03
0.00 0.00 0.00 0.00 0.01 0.01 0.03 0.03 0.03 0.02 0.02 0.01 0.01 0.01 0.01 0.01 0.01 0.01 0.01 0.01 0.01 0.00 0.00 0.00 0.00 0.00 0.00 0.01 0.01 0.00 0.00 0.01 0.06 0.05 0.07 0.05 0.01 0.03 0.04 0.03 0.02 0.03 0.02
0.01 0.00 0.01 0.01 0.01 0.01 0.02 0.02 0.03 0.02 0.02 0.02 0.01 0.01 0.01 0.00 0.01 0.01 0.01 0.01 0.00 0.01 0.00 0.00 0.00 0.00 0.00 0.00 0.00 0.00 0.00 0.01 0.05 0.10 0.11 0.05 0.01 0.01 0.02 0.02 0.02 0.02 0.02
0.06 0.06 0.03 0.04 0.04 0.03 0.02 0.02 0.03 0.02 0.02 0.02 0.02 0.01 0.02 0.04 0.05 0.04 0.03 0.01 0.01 0.01 0.00 0.01 0.00 0.00 0.00 0.00 0.00 0.00 0.01 0.02 0.06 0.18 0.10 0.04 0.01 0.01 0.01 0.02 0.02 0.02 0.02
0.09 0.11 0.05 0.08 0.05 0.04 0.04 0.03 0.06 0.08 0.06 0.06 0.07 0.04 0.08 0.12 0.10 0.08 0.05 0.03 0.01 0.01 0.00 0.01 0.01 0.01 0.01 0.03 0.02 0.01 0.02 0.02 0.04 0.08 0.05 0.02 0.02 0.02 0.02 0.03 0.03 0.02 0.02
0.10 0.12 0.08 0.10 0.09 0.08 0.10 0.09 0.10 0.13 0.14 0.11 0.11 0.08 0.12 0.11 0.07 0.07 0.08 0.05 0.04 0.03 0.04 0.04 0.04 0.05 0.04 0.05 0.04 0.02 0.02 0.03 0.04 0.07 0.06 0.04 0.03 0.03 0.03 0.04 0.04 0.03 0.02
0.18 0.16 0.11 0.09 0.08 0.08 0.09 0.11 0.11 0.10 0.11 0.11 0.11 0.08 0.08 0.10 0.11 0.10 0.12 0.11 0.09 0.09 0.08 0.06 0.06 0.04 0.04 0.05 0.04 0.03 0.02 0.03 0.08 0.10 0.09 0.06 0.03 0.03 0.04 0.05 0.05 0.05 0.05
0.23 0.27 0.17 0.10 0.11 0.10 0.10 0.11 0.09 0.09 0.12 0.13 0.10 0.09 0.07 0.09 0.10 0.11 0.12 0.10 0.08 0.07 0.06 0.05 0.05 0.04 0.04 0.04 0.02 0.01 0.02 0.04 0.13 0.06 0.05 0.04 0.02 0.02 0.04 0.05 0.07 0.06 0.06
0.22 0.24 0.17 0.13 0.11 0.12 0.09 0.09 0.09 0.08 0.14 0.16 0.10 0.09 0.07 0.11 0.13 0.12 0.11 0.09 0.06 0.04 0.04 0.04 0.04 0.04 0.04 0.03 0.03 0.01 0.01 0.03 0.06 0.03 0.04 0.05 0.03 0.02 0.03 0.05 0.07 0.07 0.08
0.20 0.22 0.21 0.17 0.12 0.12 0.13 0.08 0.07 0.09 0.10 0.11 0.12 0.09 0.07 0.10 0.11 0.09 0.08 0.06 0.04 0.04 0.05 0.04 0.05 0.07 0.05 0.05 0.05 0.03 0.01 0.01 0.02 0.02 0.03 0.05 0.03 0.03 0.04 0.04 0.05 0.06 0.08
0.21 0.24 0.29 0.30 0.21 0.14 0.13 0.12 0.10 0.11 0.11 0.10 0.09 0.08 0.06 0.09 0.08 0.06 0.05 0.04 0.04 0.03 0.04 0.05 0.06 0.07 0.07 0.07 0.06 0.04 0.02 0.01 0.02 0.02 0.02 0.03 0.04 0.03 0.05 0.04 0.03 0.04 0.06
0.24 0.25 0.25 0.36 0.33 0.20 0.13 0.11 0.12 0.11 0.10 0.09 0.08 0.07 0.07 0.06 0.04 0.05 0.05 0.06 0.05 0.05 0.05 0.04 0.08 0.07 0.07 0.06 0.04 0.04 0.02 0.02 0.02 0.02 0.02 0.02 0.03 0.03 0.05 0.04 0.03 0.03 0.05
0.27 0.29 0.26 0.28 0.30 0.24 0.18 0.15 0.15 0.12 0.09 0.09 0.09 0.08 0.07 0.05 0.03 0.04 0.05 0.05 0.06 0.05 0.05 0.05 0.07 0.06 0.06 0.05 0.02 0.03 0.02 0.02 0.02 0.02 0.02 0.02 0.02 0.02 0.04 0.07 0.07 0.05 0.05
0.22 0.24 0.25 0.26 0.23 0.20 0.18 0.16 0.15 0.14 0.13 0.11 0.09 0.07 0.04 0.04 0.03 0.04 0.05 0.05 0.04 0.05 0.05 0.05 0.05 0.05 0.05 0.04 0.04 0.04 0.04 0.02 0.02 0.01 0.02 0.02 0.02 0.03 0.05 0.07 0.08 0.08 0.07
0.16 0.18 0.18 0.20 0.17 0.15 0.15 0.16 0.15 0.16 0.12 0.10 0.09 0.08 0.04 0.03 0.03 0.03 0.04 0.03 0.03 0.03 0.04 0.04 0.03 0.03 0.03 0.02 0.02 0.03 0.04 0.03 0.03 0.01 0.01 0.02 0.02 0.02 0.02 0.04 0.06 0.07 0.06
0.15 0.14 0.13 0.16 0.16 0.14 0.14 0.13 0.14 0.14 0.13 0.13 0.11 0.07 0.04 0.03 0.04 0.04 0.03 0.02 0.03 0.02 0.03 0.03 0.02 0.03 0.02 0.01 0.01 0.02 0.02 0.04 0.04 0.03 0.02 0.02 0.02 0.02 0.02 0.02 0.02 0.04 0.04
0.14 0.15 0.16 0.16 0.15 0.13 0.12 0.12 0.11 0.10 0.11 0.10 0.07 0.06 0.05 0.03 0.03 0.03 0.02 0.02 0.02 0.01 0.02 0.01 0.01 0.01 0.01 0.01 0.01 0.01 0.01 0.02 0.03 0.03 0.03 0.02 0.01 0.01 0.01 0.01 0.01 0.02 0.02
0.12 0.14 0.14 0.15 0.13 0.11 0.12 0.11 0.11 0.09 0.09 0.07 0.07 0.06 0.05 0.03 0.03 0.01 0.01 0.01 0.01 0.01 0.01 0.01 0.00 0.00 0.00 0.00 0.00 0.00 0.01 0.01 0.01 0.02 0.02 0.02 0.01 0.01 0.01 0.01 0.01 0.01 0.03
0.10 0.12 0.11 0.12 0.11 0.12 0.11 0.10 0.10 0.09 0.08 0.07 0.07 0.06 0.04 0.02 0.02 0.01 0.01 0.01 0.01 0.01 0.01 0.00 0.00 0.00 0.00 0.00 0.00 0.00 0.00 0.00 0.01 0.00 0.01 0.01 0.01 0.01 0.00 0.00 0.00 0.02 0.02
MSLP
1009.36 1009.55 1010.00 1010.69 1011.51 1012.35 1013.09 1013.64 1013.97 1014.09 1014.08 1014.03 1014.02 1014.11 1014.30 1014.58 1014.88 1015.17 1015.38 1015.50 1015.56 1015.58 1015.61 1015.66 1015.77 1015.92 1016.07 1016.20 1016.29 1016.32 1016.30 1016.27 1016.25 1016.29 1016.40 1016.56 1016.77 1017.00 1017.21 1017.38 1017.52 1017.62 1017.72
1009.16 1009.49 1010.06 1010.85 1011.74 1012.61 1013.35 1013.88 1014.18 1014.29 1014.28 1014.24 1014.25 1014.37 1014.60 1014.90 1015.22 1015.50 1015.70 1015.81 1015.85 1015.85 1015.87 1015.93 1016.03 1016.18 1016.33 1016.45 1016.52 1016.54 1016.51 1016.47 1016.46 1016.52 1016.64 1016.84 1017.08 1017.32 1017.55 1017.74 1017.87 1017.98 1018.08
1009.04 1009.50 1010.18 1011.03 1011.96 1012.84 1013.57 1014.09 1014.39 1014.50 1014.51 1014.51 1014.56 1014.72 1014.96 1015.26 1015.56 1015.81 1015.98 1016.06 1016.08 1016.08 1016.10 1016.17 1016.29 1016.44 1016.59 1016.69 1016.74 1016.72 1016.67 1016.62 1016.62 1016.69 1016.84 1017.07 1017.34 1017.61 1017.86 1018.06 1018.21 1018.32 1018.42
1009.01 1009.59 1010.36 1011.26 1012.19 1013.05 1013.76 1014.27 1014.57 1014.71 1014.77 1014.82 1014.92 1015.10 1015.35 1015.64 1015.90 1016.11 1016.23 1016.28 1016.29 1016.30 1016.35 1016.44 1016.58 1016.74 1016.87 1016.94 1016.95 1016.89 1016.81 1016.74 1016.73 1016.81 1017.00 1017.26 1017.57 1017.88 1018.15 1018.37 1018.53 1018.65 1018.76
1009.08 1009.77 1010.60 1011.52 1012.43 1013.26 1013.93 1014.41 1014.72 1014.90 1015.01 1015.12 1015.27 1015.49 1015.74 1016.00 1016.22 1016.38 1016.46 1016.49 1016.51 1016.54 1016.62 1016.75 1016.91 1017.07 1017.18 1017.21 1017.16 1017.05 1016.92 1016.82 1016.81 1016.91 1017.13 1017.43 1017.78 1018.13 1018.43 1018.67 1018.85 1018.98 1019.10
1009.25 1010.03 1010.90 1011.81 1012.68 1013.46 1014.08 1014.53 1014.84 1015.04 1015.20 1015.37 1015.58 1015.82 1016.08 1016.32 1016.50 1016.62 1016.67 1016.70 1016.73 1016.80 1016.92 1017.09 1017.28 1017.43 1017.51 1017.48 1017.37 1017.19 1017.00 1016.88 1016.86 1016.99 1017.25 1017.60 1017.99 1018.38 1018.71 1018.97 1019.16 1019.30 1019.43
1009.48 1010.32 1011.22 1012.11 1012.94 1013.65 1014.22 1014.63 1014.92 1015.14 1015.34 1015.56 1015.81 1016.07 1016.33 1016.55 1016.71 1016.80 1016.85 1016.88 1016.94 1017.05 1017.22 1017.43 1017.64 1017.78 1017.81 1017.73 1017.54 1017.30 1017.07 1016.92 1016.90 1017.05 1017.35 1017.75 1018.19 1018.62 1018.97 1019.25 1019.45 1019.60 1019.73
1009.71 1010.61 1011.52 1012.40 1013.18 1013.83 1014.33 1014.69 1014.96 1015.19 1015.41 1015.66 1015.93 1016.22 1016.48 1016.69 1016.83 1016.92 1016.96 1017.02 1017.11 1017.27 1017.49 1017.73 1017.94 1018.06 1018.06 1017.92 1017.67 1017.37 1017.10 1016.93 1016.92 1017.10 1017.43 1017.88 1018.36 1018.82 1019.20 1019.49 1019.68 1019.83 1019.97
1009.91 1010.84 1011.76 1012.62 1013.35 1013.94 1014.39 1014.71 1014.96 1015.17 1015.41 1015.67 1015.96 1016.26 1016.53 1016.74 1016.88 1016.96 1017.02 1017.10 1017.23 1017.43 1017.68 1017.93 1018.15 1018.25 1018.21 1018.02 1017.73 1017.39 1017.09 1016.92 1016.92 1017.12 1017.49 1017.97 1018.49 1018.97 1019.36 1019.65 1019.84 1019.98 1020.11
1010.02 1010.96 1011.89 1012.72 1013.43 1013.98 1014.38 1014.67 1014.90 1015.10 1015.34 1015.61 1015.92 1016.23 1016.50 1016.71 1016.86 1016.95 1017.03 1017.13 1017.29 1017.51 1017.77 1018.03 1018.24 1018.32 1018.26 1018.04 1017.72 1017.36 1017.06 1016.89 1016.91 1017.13 1017.52 1018.02 1018.55 1019.04 1019.43 1019.72 1019.90 1020.03 1020.15
1010.03 1010.96 1011.87 1012.69 1013.37 1013.90 1014.28 1014.55 1014.77 1014.98 1015.22 1015.50 1015.82 1016.14 1016.42 1016.65 1016.81 1016.92 1017.01 1017.13 1017.29 1017.52 1017.78 1018.04 1018.23 1018.30 1018.22 1018.00 1017.68 1017.32 1017.03 1016.87 1016.90 1017.13 1017.52 1018.02 1018.54 1019.02 1019.41 1019.69 1019.87 1019.99 1020.09
1009.94 1010.83 1011.71 1012.51 1013.18 1013.69 1014.07 1014.35 1014.57 1014.80 1015.05 1015.35 1015.68 1016.02 1016.32 1016.57 1016.75 1016.88 1016.99 1017.11 1017.28 1017.49 1017.74 1017.97 1018.15 1018.21 1018.13 1017.92 1017.63 1017.30 1017.03 1016.89 1016.92 1017.14 1017.51 1017.98 1018.48 1018.94 1019.31 1019.58 1019.75 1019.87 1019.97
1009.78 1010.61 1011.44 1012.21 1012.86 1013.38 1013.77 1014.07 1014.33 1014.57 1014.85 1015.18 1015.53 1015.89 1016.22 1016.49 1016.70 1016.86 1016.98 1017.11 1017.27 1017.46 1017.68 1017.89 1018.04 1018.10 1018.04 1017.87 1017.61 1017.33 1017.10 1016.97 1016.99 1017.18 1017.51 1017.93 1018.38 1018.80 1019.15 1019.40 1019.58 1019.70 1019.81
1009.61 1010.35 1011.11 1011.83 1012.47 1013.00 1013.42 1013.76 1014.05 1014.34 1014.65 1015.00 1015.38 1015.76 1016.12 1016.42 1016.67 1016.86 1017.00 1017.14 1017.29 1017.46 1017.65 1017.83 1017.97 1018.03 1018.00 1017.86 1017.66 1017.43 1017.23 1017.11 1017.11 1017.25 1017.51 1017.86 1018.24 1018.61 1018.93 1019.19 1019.37 1019.52 1019.64
1009.48 1010.11 1010.79 1011.46 1012.08 1012.62 1013.08 1013.46 1013.79 1014.12 1014.46 1014.84 1015.23 1015.64 1016.02 1016.36 1016.65 1016.87 1017.05 1017.19 1017.34 1017.49 1017.65 1017.81 1017.94 1018.01 1018.01 1017.92 1017.78 1017.60 1017.43 1017.31 1017.28 1017.35 1017.53 1017.78 1018.08 1018.40 1018.69 1018.93 1019.14 1019.31 1019.46
1009.45 1009.97 1010.56 1011.17 1011.77 1012.33 1012.81 1013.24 1013.62 1013.98 1014.34 1014.72 1015.12 1015.53 1015.93 1016.29 1016.61 1016.88 1017.09 1017.26 1017.42 1017.56 1017.71 1017.85 1017.97 1018.05 1018.08 1018.04 1017.95 1017.82 1017.67 1017.55 1017.47 1017.47 1017.55 1017.70 1017.91 1018.15 1018.40 1018.64 1018.87 1019.07 1019.25
1009.54 1009.95 1010.46 1011.02 1011.61 1012.17 1012.69 1013.16 1013.57 1013.95 1014.31 1014.67 1015.05 1015.45 1015.84 1016.22 1016.56 1016.87 1017.12 1017.33 1017.50 1017.66 1017.80 1017.93 1018.04 1018.13 1018.19 1018.19 1018.15 1018.05 1017.93 1017.80 1017.68 1017.60 1017.58 1017.62 1017.73 1017.89 1018.09 1018.32 1018.55 1018.77 1018.98
1009.74 1010.07 1010.51 1011.03 1011.60 1012.18 1012.73 1013.23 1013.67 1014.05 1014.39 1014.72 1015.05 1015.40 1015.76 1016.13 1016.49 1016.83 1017.12 1017.37 1017.58 1017.75 1017.90 1018.03 1018.14 1018.24 1018.31 1018.35 1018.35 1018.29 1018.18 1018.04 1017.88 1017.73 1017.61 1017.54 1017.55 1017.62 1017.76 1017.95 1018.18 1018.41 1018.65
1010.02 1010.30 1010.69 1011.18 1011.74 1012.34 1012.92 1013.45 1013.90 1014.27 1014.59 1014.86 1015.12 1015.40 1015.71 1016.05 1016.41 1016.76 1017.10 1017.39 1017.63 1017.83 1017.99 1018.13 1018.25 1018.35 1018.44 1018.50 1018.53 1018.50 1018.41 1018.27 1018.08 1017.87 1017.66 1017.50 1017.39 1017.37 1017.44 1017.58 1017.77 1018.00 1018.24
1010.34 1010.58 1010.94 1011.41 1011.97 1012.58 1013.19 1013.75 1014.21 1014.58 1014.85 1015.06 1015.25 1015.45 1015.69 1015.99 1016.32 1016.69 1017.05 1017.38 1017.67 1017.90 1018.08 1018.22 1018.34 1018.45 1018.55 1018.64 1018.69 1018.69 1018.63 1018.49 1018.29 1018.04 1017.77 1017.51 1017.31 1017.19 1017.17 1017.23 1017.38 1017.58 1017.80
1010.64 1010.87 1011.19 1011.64 1012.20 1012.83 1013.46 1014.05 1014.53 1014.90 1015.14 1015.30 1015.42 1015.54 1015.71 1015.95 1016.26 1016.62 1017.00 1017.36 1017.68 1017.94 1018.15 1018.30 1018.42 1018.54 1018.65 1018.75 1018.83 1018.87 1018.84 1018.73 1018.54 1018.26 1017.95 1017.63 1017.34 1017.13 1017.01 1016.99 1017.06 1017.20 1017.39
1010.90 1011.10 1011.40 1011.82 1012.37 1013.00 1013.65 1014.27 1014.78 1015.16 1015.40 1015.52 1015.58 1015.65 1015.76 1015.94 1016.22 1016.57 1016.95 1017.34 1017.68 1017.97 1018.19 1018.36 1018.49 1018.61 1018.73 1018.85 1018.96 1019.04 1019.06 1018.99 1018.83 1018.57 1018.24 1017.88 1017.52 1017.22 1017.00 1016.88 1016.87 1016.94 1017.08
1011.11 1011.28 1011.52 1011.90 1012.42 1013.04 1013.70 1014.34 1014.89 1015.30 1015.55 1015.68 1015.72 1015.75 1015.81 1015.96 1016.20 1016.53 1016.92 1017.31 1017.67 1017.98 1018.21 1018.39 1018.53 1018.65 1018.78 1018.93 1019.07 1019.20 1019.28 1019.27 1019.16 1018.94 1018.62 1018.25 1017.85 1017.48 1017.18 1016.97 1016.86 1016.85 1016.92
1011.29 1011.41 1011.59 1011.90 1012.36 1012.95 1013.61 1014.27 1014.85 1015.30 1015.59 1015.74 1015.80 1015.82 1015.87 1015.99 1016.20 1016.51 1016.88 1017.27 1017.64 1017.95 1018.20 1018.39 1018.53 1018.67 1018.81 1018.98 1019.16 1019.34 1019.47 1019.54 1019.50 1019.34 1019.06 1018.70 1018.29 1017.88 1017.51 1017.22 1017.02 1016.93 1016.93
1011.47 1011.53 1011.64 1011.87 1012.25 1012.79 1013.42 1014.08 1014.68 1015.18 1015.52 1015.72 1015.81 1015.85 1015.90 1016.01 1016.21 1016.49 1016.84 1017.22 1017.58 1017.90 1018.15 1018.34 1018.50 1018.64 1018.80 1018.98 1019.20 1019.42 1019.62 1019.75 1019.79 1019.70 1019.49 1019.17 1018.78 1018.35 1017.94 1017.59 1017.32 1017.15 1017.07
1011.68 1011.69 1011.72 1011.86 1012.16 1012.63 1013.21 1013.85 1014.47 1014.99 1015.39 1015.63 1015.77 1015.85 1015.91 1016.02 1016.20 1016.47 1016.80 1017.15 1017.50 1017.81 1018.06 1018.26 1018.42 1018.57 1018.73 1018.93 1019.17 1019.43 1019.68 1019.87 1019.98 1019.97 1019.83 1019.57 1019.21 1018.80 1018.38 1017.99 1017.67 1017.44 1017.29
Thickness
5822 5813 5805 5801 5798 5795 5791 5788 5785 5782 5780 5777 5775 5773 5771 5770 5769 5768 5766 5765 5764 5763 5761 5760 5759 5758 5757 5756 5755 5754 5754 5753 5753 5751 5750 5749 5747 5746 5744 5743 5742 5740 5738
5823 5812 5804 5800 5796 5793 5790 5787 5784 5781 5778 5776 5774 5772 5770 5769 5767 5766 5765 5764 5762 5761 5760 5758 5757 5756 5755 5754 5753 5753 5752 5751 5750 5750 5748 5746 5745 5744 5743 5742 5741 5738 5736
5820 5810 5803 5798 5795 5791 5788 5785 5782 5779 5776 5774 5772 5770 5768 5767 5766 5765 5763 5762 5760 5759 5758 5757 5755 5754 5753 5753 5752 5751 5751 5750 5749 5748 5747 5746 5743 5742 5741 5740 5738 5737 5735
5817 5808 5802 5796 5793 5789 5786 5783 5780 5778 5775 5772 5770 5768 5767 5765 5764 5763 5761 5760 5759 5757 5756 5754 5753 5752 5751 5751 5750 5750 5749 5748 5747 5747 5746 5745 5743 5740 5739 5738 5737 5735 5734
5815 5806 5798 5794 5790 5787 5784 5781 5778 5775 5773 5770 5768 5767 5765 5763 5762 5761 5759 5758 5757 5755 5754 5752 5751 5750 5749 5749 5749 5749 5748 5747 5747 5747 5746 5744 5741 5738 5737 5736 5735 5734 5732
5810 5803 5795 5791 5788 5784 5781 5779 5776 5773 5771 5769 5766 5765 5763 5761 5760 5758 5757 5756 5754 5753 5751 5750 5749 5748 5747 5747 5747 5747 5747 5747 5748 5748 5745 5743 5739 5737 5736 5735 5734 5732 5731
5808 5799 5792 5788 5785 5781 5778 5776 5774 5771 5769 5766 5764 5763 5761 5759 5758 5756 5755 5753 5752 5751 5749 5748 5747 5746 5745 5745 5746 5746 5746 5748 5749 5748 5744 5741 5738 5736 5735 5733 5732 5731 5730
5807 5797 5789 5785 5782 5779 5776 5774 5771 5769 5767 5765 5762 5761 5759 5757 5755 5754 5753 5751 5750 5749 5747 5746 5745 5744 5744 5744 5744 5745 5746 5746 5749 5748 5744 5740 5737 5735 5733 5732 5731 5730 5729
5806 5796 5788 5783 5779 5776 5774 5771 5769 5767 5765 5763 5761 5759 5757 5756 5754 5752 5751 5749 5748 5747 5745 5745 5744 5743 5743 5743 5743 5744 5745 5746 5747 5747 5742 5739 5737 5734 5732 5731 5730 5729 5728
5803 5794 5788 5783 5778 5775 5772 5769 5767 5765 5763 5761 5759 5758 5756 5754 5753 5751 5749 5748 5747 5745 5744 5743 5742 5742 5742 5742 5742 5743 5744 5745 5747 5745 5739 5736 5736 5734 5731 5730 5728 5727 5726
5797 5793 5789 5784 5779 5776 5772 5768 5765 5763 5761 5760 5758 5757 5756 5754 5753 5751 5750 5747 5746 5744 5743 5742 5741 5741 5740 5741 5741 5742 5743 5744 5745 5741 5737 5736 5735 5733 5731 5729 5727 5726 5725
5788 5789 5789 5784 5780 5778 5775 5768 5765 5763 5761 5760 5759 5757 5756 5755 5754 5752 5749 5747 5745 5743 5742 5741 5740 5740 5740 5740 5740 5741 5742 5743 5743 5740 5736 5735 5733 5731 5729 5728 5726 5725 5724
5788 5788 5787 5783 5778 5777 5774 5769 5767 5765 5762 5761 5759 5758 5756 5755 5755 5752 5749 5746 5744 5743 5742 5741 5741 5741 5741 5741 5741 5741 5742 5741 5740 5738 5733 5732 5731 5730 5728 5726 5725 5724 5723
5784 5783 5784 5781 5777 5775 5772 5770 5767 5765 5762 5762 5760 5759 5757 5755 5754 5752 5750 5748 5746 5745 5744 5743 5742 5742 5741 5740 5740 5740 5740 5739 5738 5735 5732 5731 5729 5728 5727 5726 5724 5723 5722
5777 5775 5776 5777 5773 5771 5769 5768 5767 5765 5762 5761 5759 5757 5756 5755 5753 5751 5749 5748 5747 5745 5744 5743 5742 5741 5740 5739 5739 5739 5738 5737 5735 5733 5731 5730 5729 5728 5726 5725 5724 5723 5721
5771 5767 5770 5771 5770 5767 5765 5764 5764 5763 5761 5759 5757 5756 5755 5753 5751 5750 5748 5747 5746 5745 5744 5742 5741 5740 5739 5738 5738 5737 5736 5736 5734 5733 5731 5729 5728 5727 5726 5725 5724 5722 5721
5768 5766 5766 5766 5765 5763 5761 5761 5761 5761 5759 5757 5755 5754 5753 5752 5750 5749 5748 5746 5745 5744 5743 5742 5741 5739 5738 5738 5736 5736 5735 5735 5734 5733 5731 5729 5728 5727 5726 5724 5723 5721 5720
5765 5762 5762 5762 5760 5758 5757 5757 5758 5759 5758 5756 5753 5752 5751 5750 5749 5748 5747 5745 5744 5744 5742 5741 5739 5737 5736 5735 5734 5735 5735 5734 5733 5732 5731 5730 5729 5728 5725 5724 5722 5720 5719
5760 5759 5756 5758 5755 5754 5753 5753 5754 5755 5755 5753 5751 5750 5748 5748 5747 5747 5745 5743 5743 5743 5742 5741 5736 5735 5733 5733 5733 5734 5734 5733 5733 5732 5731 5730 5729 5728 5726 5723 5721 5720 5718
5756 5754 5753 5753 5751 5751 5750 5750 5751 5751 5751 5751 5749 5748 5747 5746 5746 5745 5744 5743 5743 5742 5740 5738 5735 5734 5733 5732 5734 5734 5733 5734 5733 5732 5731 5730 5728 5727 5725 5723 5720 5719 5717
5751 5750 5749 5748 5747 5747 5746 5745 5744 5744 5746 5747 5746 5746 5745 5745 5745 5745 5744 5742 5741 5740 5738 5737 5734 5732 5731 5733 5729 5728 5731 5734 5733 5731 5729 5728 5727 5725 5724 5722 5720 5718 5717
5748 5746 5746 5747 5746 5746 5745 5745 5745 5745 5745 5745 5745 5744 5744 5744 5744 5745 5742 5742 5740 5738 5737 5736 5733 5730 5731 5732 5727 5722 5720 5723 5727 5731 5728 5725 5724 5723 5721 5720 5718 5717 5716
5746 5745 5746 5745 5745 5745 5745 5744 5745 5743 5742 5742 5741 5742 5744 5744 5743 5743 5742 5742 5740 5739 5736 5734 5733 5730 5727 5729 5730 5723 5715 5711 5716 5722 5725 5724 5722 5720 5718 5717 5716 5714 5713
5747 5747 5746 5744 5744 5744 5744 5743 5741 5738 5737 5740 5742 5742 5743 5743 5743 5742 5742 5741 5739 5739 5736 5734 5732 5731 5728 5725 5727 5727 5723 5718 5711 5709 5716 5720 5720 5718 5716 5715 5713 5711 5710
5749 5748 5746 5745 5743 5744 5744 5744 5743 5741 5742 5744 5743 5741 5741 5742 5742 5742 5741 5740 5739 5737 5735 5733 5731 5729 5728 5725 5724 5723 5722 5719 5717 5709 5705 5710 5713 5716 5715 5714 5712 5709 5707
5751 5749 5747 5745 5744 5744 5745 5745 5743 5742 5743 5742 5740 5739 5739 5740 5741 5740 5740 5739 5738 5736 5734 5732 5729 5728 5726 5724 5722 5721 5718 5715 5712 5710 5706 5705 5706 5711 5713 5712 5710 5707 5705